EW6246 Weather Reports


time (UTC)temp
C
wind
direction
speed
KPH
gust
KPH
rain 1hr
cm
rain 24hr
cm
rain mn
cm
humidity
%
barometer
mb
20260507213510 24 281 1.6 1.6 0.00 0.03 0.03 87 1016.9
20260507213007 24 302 0.0 0.0 0.00 0.03 0.03 81 1016.9
20260507212503 24 301 4.8 8.0 0.00 0.03 0.03 82 1016.9
20260507212000 25 288 1.6 1.6 0.00 0.03 0.03 84 1016.9
20260507211456 25 285 1.6 3.2 0.00 0.03 0.03 84 1016.9
20260507210953 25 269 1.6 1.6 0.00 0.03 0.03 80 1017.0
20260507210450 24 288 0.0 1.6 0.00 0.03 0.03 81 1016.7
20260507205947 24 309 0.0 0.0 0.00 0.03 0.03 82 1016.6
20260507205444 24 289 1.6 1.6 0.00 0.03 0.03 82 1017.0
20260507204940 24 297 1.6 1.6 0.00 0.03 0.03 83 1017.0
20260507204436 24 37 3.2 3.2 0.00 0.03 0.03 83 1016.6
20260507203934 24 349 1.6 1.6 0.00 0.03 0.03 83 1016.7
20260507203432 24 289 0.0 3.2 0.00 0.03 0.03 82 1017.0
20260507202928 25 19 1.6 1.6 0.00 0.03 0.03 81 1017.1
20260507202425 26 332 1.6 3.2 0.00 0.03 0.03 79 1017.0
20260507201920 26 87 4.8 4.8 0.00 0.03 0.03 79 1016.6
20260507201416 26 275 1.6 3.2 0.00 0.03 0.03 79 1016.6
20260507200913 25 18 1.6 1.6 0.00 0.03 0.03 82 1016.5
20260507200408 25 315 3.2 3.2 0.00 0.03 0.03 82 1017.0
20260507195904 24 302 1.6 1.6 0.00 0.03 0.03 83 1017.1
20260507195402 24 245 1.6 1.6 0.00 0.03 0.03 84 1017.3
20260507194859 25 26 3.2 3.2 0.00 0.03 0.03 83 1017.4
20260507194355 26 80 3.2 3.2 0.00 0.03 0.03 80 1017.2
20260507193852 25 284 1.6 1.6 0.00 0.03 0.03 84 1017.3
20260507193349 26 93 6.4 11.3 0.00 0.03 0.03 81 1017.1
20260507192845 25 325 1.6 1.6 0.00 0.03 0.03 82 1017.1
20260507192342 25 231 1.6 1.6 0.00 0.03 0.03 83 1017.2
20260507191838 25 294 1.6 1.6 0.00 0.03 0.03 82 1017.1
20260507191334 26 286 3.2 4.8 0.00 0.03 0.03 79 1017.2
20260507190831 26 273 3.2 8.0 0.00 0.03 0.03 80 1017.6
20260507190330 25 230 8.0 12.9 0.00 0.03 0.03 81 1017.2
20260507185828 26 56 4.8 8.0 0.00 0.03 0.03 81 1017.7
20260507185325 26 271 1.6 3.2 0.00 0.03 0.03 79 1017.5
20260507184822 27 13 1.6 3.2 0.00 0.03 0.03 78 1017.2
20260507184320 26 23 3.2 3.2 0.00 0.03 0.03 79 1017.2
20260507183816 25 14 1.6 1.6 0.00 0.03 0.03 80 1017.6
20260507183314 26 280 6.4 9.7 0.00 0.03 0.03 79 1017.5
20260507182811 26 171 3.2 3.2 0.00 0.03 0.03 77 1017.7
20260507182307 26 311 3.2 3.2 0.00 0.03 0.03 79 1017.6
20260507181803 25 302 4.8 4.8 0.00 0.03 0.03 84 1017.4
20260507181259 23 265 4.8 9.7 0.00 0.03 0.03 88 1017.6
20260507180756 23 259 4.8 11.3 0.00 0.03 0.03 89 1017.7
20260507180253 23 258 3.2 3.2 0.13 0.03 0.03 90 1017.6
20260507175748 23 258 3.2 3.2 0.13 0.03 0.03 89 1017.9
20260507175245 24 258 4.8 8.0 0.00 0.00 0.00 88 1018.0
20260507174743 24 258 3.2 3.2 0.00 0.00 0.00 85 1018.0
20260507174241 25 258 1.6 3.2 0.00 0.00 0.00 82 1018.0
20260507173738 25 258 1.6 3.2 0.00 0.00 0.00 81 1018.1
20260507173235 25 258 3.2 4.8 0.00 0.00 0.00 81 1017.7
20260507172731 26 258 4.8 8.0 0.00 0.00 0.00 80 1018.2
20260507172229 26 258 3.2 3.2 0.00 0.00 0.00 80 1018.1
20260507171728 27 258 3.2 3.2 0.00 0.00 0.00 75 1018.6
20260507171226 28 258 4.8 8.0 0.00 0.00 0.00 74 1018.0
20260507170723 28 258 3.2 3.2 0.00 0.00 0.00 70 1018.1
20260507170220 28 258 3.2 3.2 0.00 0.00 0.00 70 1018.1
20260507165715 28 280 1.6 3.2 0.00 0.00 0.00 71 1018.4
20260507165212 28 268 3.2 4.8 0.00 0.00 0.00 72 1018.6
20260507164708 28 291 6.4 8.0 0.00 0.00 0.00 74 1018.5
20260507164205 28 275 3.2 4.8 0.00 0.00 0.00 71 1018.4
20260507163702 29 312 4.8 4.8 0.00 0.00 0.00 70 1018.7
20260507163200 28 350 0.0 1.6 0.00 0.00 0.00 71 1018.7
20260507162655 28 298 3.2 3.2 0.00 0.00 0.00 74 1019.0
20260507162146 27 289 0.0 0.0 0.00 0.00 0.00 75 1019.1
20260507161642 26 258 3.2 3.2 0.00 0.00 0.00 79 1018.9
20260507161139 26 258 4.8 9.7 0.00 0.00 0.00 77 1019.1
20260507160636 27 349 8.0 12.9 0.00 0.00 0.00 76 1019.3
20260507160132 28 342 1.6 1.6 0.00 0.00 0.00 72 1019.1
20260507155627 28 293 1.6 3.2 0.00 0.00 0.00 72 1019.1
20260507155119 27 290 1.6 1.6 0.00 0.00 0.00 73 1019.3
20260507154615 27 55 8.0 11.3 0.00 0.00 0.00 72 1019.5
20260507154113 26 258 6.4 9.7 0.00 0.00 0.00 77 1019.4
20260507153609 27 299 3.2 3.2 0.00 0.00 0.00 74 1019.3
20260507153106 27 259 0.0 0.0 0.00 0.00 0.00 69 1019.4
20260507152602 27 289 4.8 4.8 0.00 0.00 0.00 68 1019.4
20260507152058 29 307 1.6 1.6 0.00 0.00 0.00 64 1019.4
20260507151554 28 310 1.6 1.6 0.00 0.00 0.00 65 1019.4
20260507151051 28 298 1.6 3.2 0.00 0.00 0.00 66 1019.4
20260507150543 28 295 0.0 1.6 0.00 0.00 0.00 67 1019.4
20260507150039 28 296 1.6 1.6 0.00 0.00 0.00 66 1019.5
20260507145534 28 248 3.2 4.8 0.00 0.00 0.00 70 1019.4
20260507145032 27 321 0.0 1.6 0.00 0.00 0.00 71 1019.6
20260507144528 26 283 1.6 1.6 0.00 0.00 0.00 76 1019.5
20260507144026 26 284 0.0 0.0 0.00 0.00 0.00 72 1019.8
20260507143523 26 268 1.6 3.2 0.00 0.00 0.00 70 1019.9
20260507143021 26 263 1.6 1.6 0.00 0.00 0.00 71 1019.9
20260507142515 26 288 0.0 0.0 0.00 0.00 0.00 73 1019.6
20260507142013 25 273 1.6 1.6 0.00 0.00 0.00 74 1019.5
20260507141509 25 244 1.6 1.6 0.00 0.00 0.00 76 1019.4
20260507141007 26 284 1.6 1.6 0.00 0.00 0.00 75 1019.8
20260507140503 26 285 0.0 1.6 0.00 0.00 0.00 73 1020.0
20260507140000 26 270 3.2 3.2 0.00 0.00 0.00 71 1019.9
20260507135457 26 270 1.6 1.6 0.00 0.00 0.00 74 1019.8
20260507134954 25 297 0.0 0.0 0.00 0.00 0.00 76 1019.9
20260507134450 25 290 1.6 1.6 0.00 0.00 0.00 75 1019.9
20260507133946 26 261 1.6 1.6 0.00 0.00 0.00 74 1019.8
20260507133443 25 326 0.0 0.0 0.00 0.00 0.00 76 1019.7
20260507132941 25 326 1.6 1.6 0.00 0.00 0.00 76 1019.7
20260507132437 26 6 1.6 1.6 0.00 0.00 0.00 75 1019.8
20260507131933 25 307 0.0 1.6 0.00 0.00 0.00 75 1019.7
20260507131431 25 263 1.6 3.2 0.00 0.00 0.00 77 1019.7
20260507130928 26 300 1.6 1.6 0.00 0.00 0.00 74 1019.5
20260507130425 26 296 1.6 1.6 0.00 0.00 0.00 76 1019.5
20260507125924 25 291 0.0 0.0 0.00 0.00 0.00 76 1019.6
20260507125421 25 270 0.0 1.6 0.00 0.00 0.00 77 1019.5
20260507124918 25 273 3.2 3.2 0.00 0.00 0.00 78 1019.5
20260507124414 25 279 0.0 0.0 0.00 0.00 0.00 79 1019.4
20260507123913 25 262 1.6 1.6 0.00 0.00 0.00 77 1019.3
20260507123410 25 288 1.6 1.6 0.00 0.00 0.00 79 1019.4
20260507122906 26 251 1.6 1.6 0.00 0.00 0.00 75 1019.2
20260507122401 25 285 0.0 0.0 0.00 0.00 0.00 74 1019.2
20260507121858 25 296 0.0 0.0 0.00 0.00 0.00 75 1019.2
20260507121353 24 287 1.6 1.6 0.00 0.00 0.00 78 1019.0
20260507120850 23 290 0.0 0.0 0.00 0.00 0.00 81 1018.9
20260507120346 23 260 1.6 1.6 0.00 0.00 0.00 84 1018.7
20260507115843 23 287 3.2 3.2 0.00 0.00 0.00 83 1018.7
20260507115338 22 290 3.2 3.2 0.00 0.00 0.00 86 1018.7
20260507114834 22 266 3.2 3.2 0.00 0.00 0.00 87 1018.6
20260507114332 23 281 1.6 3.2 0.00 0.00 0.00 82 1018.5
20260507113829 25 310 0.0 0.0 0.00 0.00 0.00 77 1018.6
20260507113326 24 310 0.0 0.0 0.00 0.00 0.00 80 1018.9
20260507112824 24 310 0.0 1.6 0.00 0.00 0.00 79 1018.5
20260507112320 25 310 0.0 0.0 0.00 0.00 0.00 76 1018.4
20260507111818 24 310 0.0 0.0 0.00 0.00 0.00 80 1018.5
20260507111314 23 310 0.0 0.0 0.00 0.00 0.00 84 1018.5
20260507110811 22 310 0.0 0.0 0.00 0.00 0.00 83 1018.5
20260507110307 20 310 0.0 0.0 0.00 0.00 0.00 90 1018.6
20260507105804 21 310 0.0 0.0 0.00 0.00 0.00 89 1018.7
20260507105300 20 310 0.0 1.6 0.00 0.00 0.00 89 1018.5
20260507104757 19 322 1.6 1.6 0.00 0.00 0.00 92 1018.6
20260507104253 18 322 0.0 0.0 0.00 0.00 0.00 94 1018.4
20260507103749 18 323 0.0 0.0 0.00 0.00 0.00 94 1018.6
20260507103246 18 327 0.0 1.6 0.00 0.00 0.00 94 1018.5
20260507102742 18 327 0.0 0.0 0.00 0.00 0.00 95 1018.4
20260507102234 18 328 0.0 0.0 0.00 0.00 0.00 95 1018.4
20260507101730 18 328 1.6 1.6 0.00 0.00 0.00 96 1018.3
20260507101225 18 321 0.0 0.0 0.00 0.00 0.00 95 1018.3
20260507100722 18 327 1.6 1.6 0.00 0.00 0.00 95 1018.2
20260507100221 18 321 0.0 0.0 0.00 0.00 0.00 95 1018.0
20260507095719 18 321 0.0 1.6 0.00 0.00 0.00 95 1018.0
20260507095215 18 319 0.0 0.0 0.00 0.00 0.00 96 1018.1
20260507094712 18 317 0.0 0.0 0.00 0.00 0.00 96 1017.9
20260507094209 18 317 0.0 0.0 0.00 0.00 0.00 96 1017.8
20260507093705 18 317 0.0 0.0 0.00 0.00 0.00 96 1018.0
20260507093204 18 317 0.0 0.0 0.00 0.00 0.00 96 1018.2
20260507092700 18 318 0.0 0.0 0.00 0.00 0.00 95 1018.1
20260507092151 18 325 0.0 0.0 0.00 0.00 0.00 95 1017.9
20260507091648 18 316 1.6 1.6 0.00 0.00 0.00 95 1018.0
20260507091144 18 317 0.0 1.6 0.00 0.00 0.00 95 1018.0
20260507090640 18 317 0.0 1.6 0.00 0.00 0.00 95 1018.0
20260507090137 18 317 0.0 1.6 0.00 0.00 0.00 95 1018.1
20260507085634 18 311 0.0 0.0 0.00 0.00 0.00 94 1018.3
20260507085131 18 311 0.0 0.0 0.00 0.00 0.00 95 1018.1
20260507084628 18 312 0.0 0.0 0.00 0.00 0.00 94 1018.0
20260507084124 18 316 0.0 0.0 0.00 0.00 0.00 95 1018.2
20260507083621 18 315 0.0 0.0 0.00 0.00 0.00 95 1018.2
20260507083118 18 315 0.0 0.0 0.00 0.00 0.00 95 1018.3
20260507082614 17 314 0.0 0.0 0.00 0.00 0.00 94 1018.2
20260507082111 17 315 0.0 0.0 0.00 0.00 0.00 94 1018.3
20260507081607 17 317 0.0 0.0 0.00 0.00 0.00 94 1018.2
20260507081104 17 318 0.0 1.6 0.00 0.00 0.00 94 1018.0
20260507080600 17 313 0.0 0.0 0.00 0.00 0.00 94 1018.2
20260507080056 17 311 0.0 1.6 0.00 0.00 0.00 94 1018.1
20260507075551 17 310 0.0 0.0 0.00 0.00 0.00 94 1018.0
20260507075048 17 318 1.6 1.6 0.00 0.00 0.00 94 1018.1
20260507074545 17 304 0.0 0.0 0.00 0.00 0.00 94 1018.1
20260507074043 17 296 0.0 0.0 0.00 0.00 0.00 95 1018.2
20260507073539 17 299 0.0 0.0 0.00 0.00 0.00 94 1018.2
20260507073036 17 294 0.0 0.0 0.00 0.00 0.00 94 1018.1
20260507072533 17 299 0.0 0.0 0.00 0.00 0.00 94 1018.1
20260507072030 17 319 0.0 0.0 0.00 0.00 0.00 94 1018.3
20260507071528 17 308 0.0 0.0 0.00 0.00 0.00 94 1018.4
20260507071024 17 287 0.0 0.0 0.00 0.00 0.00 94 1018.2
20260507070521 17 321 0.0 0.0 0.00 0.00 0.00 94 1018.3
20260507070018 17 306 0.0 0.0 0.00 0.00 0.00 94 1018.4
20260507065514 17 312 0.0 0.0 0.00 0.00 0.00 94 1018.5
20260507065012 17 306 0.0 0.0 0.00 0.00 0.00 94 1018.4
20260507064510 17 308 0.0 0.0 0.00 0.00 0.00 95 1018.5
20260507064008 17 302 0.0 0.0 0.00 0.00 0.00 95 1018.6
20260507063504 17 315 0.0 0.0 0.00 0.00 0.00 95 1018.9
20260507063002 17 301 0.0 0.0 0.00 0.00 0.00 95 1018.6
20260507062459 17 304 0.0 0.0 0.00 0.00 0.00 94 1018.7
20260507061956 17 318 0.0 0.0 0.00 0.00 0.00 94 1018.7
20260507061454 17 298 0.0 0.0 0.00 0.00 0.00 94 1019.0
20260507060952 18 301 0.0 0.0 0.00 0.00 0.00 94 1019.1
20260507060449 18 311 0.0 1.6 0.00 0.00 0.00 94 1018.9
20260507055945 18 298 0.0 0.0 0.00 0.00 0.00 94 1019.2
20260507055440 18 319 1.6 1.6 0.00 0.00 0.00 94 1019.2
20260507054937 18 288 0.0 0.0 0.00 0.00 0.00 93 1019.3
20260507054433 18 301 0.0 0.0 0.00 0.00 0.00 93 1019.2
20260507053931 18 349 0.0 0.0 0.00 0.00 0.00 94 1019.2
20260507053428 17 302 0.0 0.0 0.00 0.00 0.00 94 1019.5
20260507052927 17 320 0.0 0.0 0.00 0.00 0.00 95 1019.4
20260507052424 17 298 0.0 0.0 0.00 0.00 0.00 95 1019.6
20260507051921 17 311 0.0 0.0 0.00 0.00 0.00 95 1019.7
20260507051418 17 291 0.0 0.0 0.00 0.00 0.00 94 1019.8
20260507050915 18 302 0.0 0.0 0.00 0.00 0.00 94 1019.5
20260507050411 18 320 0.0 0.0 0.00 0.00 0.00 94 1019.8
20260507045908 18 311 0.0 0.0 0.00 0.00 0.00 94 1019.9
20260507045404 18 300 0.0 0.0 0.00 0.00 0.00 94 1019.9
20260507044857 18 308 0.0 1.6 0.00 0.00 0.00 94 1020.0
20260507044353 18 312 1.6 1.6 0.00 0.00 0.00 94 1020.2
20260507043849 18 306 0.0 0.0 0.00 0.00 0.00 94 1020.1
20260507043346 18 313 0.0 0.0 0.00 0.00 0.00 94 1020.2
20260507042842 18 311 0.0 0.0 0.00 0.00 0.00 93 1020.4
20260507042338 18 308 0.0 0.0 0.00 0.00 0.00 94 1020.6
20260507041835 18 309 0.0 0.0 0.00 0.00 0.00 94 1020.5
20260507041332 18 309 0.0 0.0 0.00 0.00 0.00 94 1020.3
20260507040829 18 298 0.0 0.0 0.00 0.00 0.00 94 1020.6
20260507040325 18 314 0.0 0.0 0.00 0.00 0.00 94 1020.4
20260507035821 18 306 0.0 0.0 0.00 0.00 0.00 94 1020.6
20260507035316 18 306 0.0 0.0 0.00 0.00 0.00 94 1020.6
20260507034814 18 309 0.0 0.0 0.00 0.00 0.00 94 1020.5
20260507034311 18 298 0.0 0.0 0.00 0.00 0.00 94 1020.7
20260507033809 18 303 0.0 0.0 0.00 0.00 0.00 94 1020.8
20260507033307 18 306 0.0 0.0 0.00 0.00 0.00 95 1020.7
20260507032803 18 304 0.0 0.0 0.00 0.00 0.00 94 1021.0
20260507032259 18 298 0.0 0.0 0.00 0.00 0.00 94 1020.7
20260507031756 18 299 0.0 0.0 0.00 0.00 0.00 94 1020.8
20260507031253 18 297 0.0 0.0 0.00 0.00 0.00 94 1021.0
20260507030749 18 300 0.0 0.0 0.00 0.00 0.00 94 1021.0
20260507030247 18 302 0.0 0.0 0.00 0.00 0.00 94 1020.8
20260507025744 18 304 0.0 0.0 0.00 0.00 0.00 94 1020.8
20260507025241 18 307 0.0 0.0 0.00 0.00 0.00 94 1021.0
20260507024739 18 302 0.0 0.0 0.00 0.00 0.00 94 1021.0
20260507024236 18 304 0.0 0.0 0.00 0.00 0.00 94 1020.8
20260507023732 18 304 0.0 0.0 0.00 0.00 0.00 94 1021.0
20260507023229 18 308 0.0 0.0 0.00 0.00 0.00 94 1021.0
20260507022726 18 302 0.0 0.0 0.00 0.00 0.00 94 1020.7
20260507022222 18 314 0.0 0.0 0.00 0.00 0.00 94 1020.7
20260507021719 18 302 0.0 0.0 0.00 0.00 0.00 94 1020.6
20260507021214 18 314 0.0 0.0 0.00 0.00 0.00 94 1020.4
20260507020713 19 302 0.0 0.0 0.00 0.00 0.00 94 1020.5
20260507020208 19 304 0.0 0.0 0.00 0.00 0.00 94 1020.4
20260507015707 19 305 0.0 0.0 0.00 0.00 0.00 94 1020.3
20260507015204 19 296 0.0 0.0 0.00 0.00 0.00 94 1020.5
20260507014700 19 302 0.0 0.0 0.00 0.00 0.00 93 1020.4
20260507014156 19 300 0.0 0.0 0.00 0.00 0.00 93 1020.2
20260507013653 20 297 0.0 0.0 0.00 0.00 0.00 93 1020.2
20260507013150 20 302 0.0 0.0 0.00 0.00 0.00 92 1020.4
20260507012648 20 302 0.0 0.0 0.00 0.00 0.00 92 1020.3
20260507012143 20 309 0.0 0.0 0.00 0.00 0.00 92 1020.2
20260507011641 20 309 0.0 0.0 0.00 0.00 0.00 92 1020.1
20260507011137 20 306 0.0 0.0 0.00 0.00 0.00 92 1019.9
20260507010632 20 302 0.0 0.0 0.00 0.00 0.00 92 1020.1
20260507010128 20 299 0.0 0.0 0.00 0.00 0.00 93 1019.9
20260507005626 20 304 0.0 1.6 0.00 0.00 0.00 92 1020.1
20260507005122 20 304 0.0 1.6 0.00 0.00 0.00 92 1019.8
20260507004619 20 298 0.0 0.0 0.00 0.00 0.00 93 1019.7
20260507004116 20 313 1.6 1.6 0.00 0.00 0.00 93 1019.9
20260507003612 20 297 0.0 0.0 0.00 0.00 0.00 92 1019.7
20260507003107 20 301 1.6 1.6 0.00 0.00 0.00 92 1019.8
20260507002604 20 312 0.0 0.0 0.00 0.00 0.00 91 1019.9
20260507002100 21 297 0.0 0.0 0.00 0.00 0.00 91 1019.8
20260507001557 21 295 0.0 0.0 0.00 0.00 0.00 90 1019.6
20260507001054 21 294 0.0 0.0 0.00 0.00 0.00 88 1019.5
20260507000550 21 292 0.0 0.0 0.00 0.00 0.00 87 1019.6
20260507000046 22 254 3.2 3.2 0.00 0.00 0.00 84 1019.5
20260506235544 22 277 3.2 4.8 0.00 0.00 0.00 84 1019.3
20260506235039 22 297 1.6 1.6 0.00 0.00 0.00 84 1019.3
20260506234536 22 304 0.0 1.6 0.00 0.00 0.00 85 1019.2
20260506234033 22 61 1.6 3.2 0.00 0.00 0.00 86 1019.3
20260506233530 22 318 0.0 1.6 0.00 0.00 0.00 85 1019.2
20260506233021 22 312 4.8 9.7 0.00 0.00 0.00 84 1019.1
20260506232517 22 246 3.2 3.2 0.00 0.00 0.00 85 1019.3
20260506232013 22 279 1.6 3.2 0.00 0.00 0.00 85 1019.1
20260506231511 22 327 3.2 3.2 0.00 0.00 0.00 84 1019.0
20260506231008 22 268 1.6 3.2 0.00 0.00 0.00 84 1018.9
20260506230504 22 264 1.6 1.6 0.00 0.00 0.00 84 1018.5
20260506225956 22 288 3.2 4.8 0.00 0.00 0.00 85 1018.5
20260506225453 22 281 1.6 1.6 0.00 0.00 0.00 86 1018.5
20260506224949 22 278 3.2 4.8 0.00 0.00 0.00 84 1018.6
20260506224446 22 260 1.6 1.6 0.00 0.00 0.00 85 1018.7
20260506223943 23 258 1.6 1.6 0.00 0.00 0.00 86 1018.4
20260506223439 23 278 3.2 4.8 0.00 0.00 0.00 86 1018.5
20260506222936 23 261 4.8 4.8 0.00 0.00 0.00 85 1018.6
20260506222432 23 270 1.6 3.2 0.00 0.00 0.00 86 1018.5
20260506221929 23 258 1.6 3.2 0.00 0.00 0.00 83 1018.5
20260506221426 23 258 4.8 9.7 0.00 0.00 0.00 83 1018.4
20260506220924 23 258 3.2 3.2 0.00 0.00 0.00 85 1018.4
20260506220419 24 258 4.8 8.0 0.00 0.00 0.00 85 1018.2
20260506215916 24 258 1.6 1.6 0.00 0.00 0.00 84 1018.4
20260506215412 24 258 4.8 8.0 0.00 0.00 0.00 83 1018.5
20260506214908 25 258 1.6 3.2 0.00 0.00 0.00 83 1018.4
20260506214405 25 258 1.6 3.2 0.00 0.00 0.00 81 1018.3